• In Hungary
  • List of Countries
  • For 7 days
  • Water Temperature
  • Satellite Maps
  • Weather Map
  • News
  • Weather Widgets
  • user-avatar
    Login

    Hourly Weather Staryy Zagan

    Today, 22 February, Thursday

    Time Temperature Precipitation Wind Pressure Humidity
    00:00 -17°C° 0.1 mm 1 mps 675 mmHg 94%
    01:00 -18°C° 0 mm 1 mps 674 mmHg 95%
    02:00 -18°C° 0.1 mm 1 mps 674 mmHg 95%
    03:00 -18°C° 0.1 mm 1 mps 674 mmHg 96%
    04:00 -19°C° 0.1 mm 1 mps 674 mmHg 96%
    05:00 -19°C° 0.1 mm 1 mps 674 mmHg 96%
    06:00 -19°C° 0.1 mm 1 mps 674 mmHg 97%
    07:00 -19°C° 0 mm 1 mps 673 mmHg 97%
    08:00 -17°C° 0.1 mm 1 mps 674 mmHg 95%
    09:00 -16°C° 0.1 mm 1 mps 674 mmHg 92%
    10:00 -14°C° 0.1 mm 1 mps 674 mmHg 90%
    11:00 -15°C° 0.1 mm 2 mps 674 mmHg 87%
    12:00 -15°C° 0.1 mm 2 mps 673 mmHg 85%
    13:00 -15°C° 0.1 mm 3 mps 673 mmHg 82%
    14:00 -15°C° 0.1 mm 3 mps 673 mmHg 82%
    15:00 -16°C° 0.1 mm 3 mps 673 mmHg 82%
    16:00 -16°C° 0.1 mm 3 mps 673 mmHg 81%
    17:00 -18°C° 0 mm 3 mps 674 mmHg 84%
    18:00 -20°C° 0 mm 2 mps 674 mmHg 88%
    19:00 -20°C° 0 mm 1 mps 674 mmHg 91%
    20:00 -21°C° 0 mm 1 mps 674 mmHg 92%
    21:00 -22°C° 0 mm 1 mps 674 mmHg 92%
    22:00 -24°C° 0 mm 0 mps 675 mmHg 93%
    23:00 -24°C° 0 mm 0 mps 675 mmHg 93%

    Tomorrow, 23 February, Friday

    Time Temperature Precipitation Wind Pressure Humidity
    00:00 -25°C° 0 mm 0 mps 676 mmHg 93%
    01:00 -25°C° 0 mm 0 mps 676 mmHg 93%
    02:00 -25°C° 0 mm 1 mps 676 mmHg 93%
    03:00 -25°C° 0 mm 1 mps 677 mmHg 93%
    04:00 -27°C° 0 mm 1 mps 677 mmHg 93%
    05:00 -27°C° 0 mm 1 mps 677 mmHg 92%
    06:00 -27°C° 0 mm 1 mps 678 mmHg 92%
    07:00 -27°C° 0 mm 1 mps 678 mmHg 92%
    08:00 -23°C° 0 mm 1 mps 678 mmHg 88%
    09:00 -20°C° 0 mm 1 mps 679 mmHg 85%
    10:00 -19°C° 0 mm 2 mps 680 mmHg 81%
    11:00 -18°C° 0 mm 2 mps 679 mmHg 79%
    12:00 -16°C° 0 mm 2 mps 679 mmHg 76%
    13:00 -15°C° 0 mm 3 mps 679 mmHg 74%
    14:00 -14°C° 0 mm 2 mps 679 mmHg 77%
    15:00 -14°C° 0 mm 2 mps 679 mmHg 79%
    16:00 -14°C° 0 mm 2 mps 678 mmHg 82%
    17:00 -16°C° 0 mm 2 mps 678 mmHg 85%
    18:00 -16°C° 0 mm 1 mps 678 mmHg 88%
    19:00 -18°C° 0 mm 1 mps 679 mmHg 92%
    20:00 -19°C° 0 mm 1 mps 679 mmHg 92%
    21:00 -19°C° 0 mm 1 mps 679 mmHg 93%
    22:00 -20°C° 0 mm 1 mps 679 mmHg 93%
    23:00 -20°C° 0 mm 1 mps 679 mmHg 93%

    Day after tomorrow, 24 February, Saturday

    Time Temperature Precipitation Wind Pressure Humidity
    00:00 -20°C° 0 mm 1 mps 679 mmHg 93%
    01:00 -20°C° 0 mm 1 mps 679 mmHg 92%
    02:00 -19°C° 0.1 mm 1 mps 679 mmHg 93%
    03:00 -18°C° 0.1 mm 1 mps 679 mmHg 93%
    04:00 -18°C° 0.1 mm 1 mps 679 mmHg 93%
    05:00 -18°C° 0.1 mm 1 mps 679 mmHg 94%
    06:00 -17°C° 0.1 mm 1 mps 679 mmHg 94%
    07:00 -17°C° 0.1 mm 1 mps 679 mmHg 94%
    08:00 -15°C° 0.1 mm 1 mps 679 mmHg 92%
    09:00 -14°C° 0.1 mm 1 mps 679 mmHg 89%
    10:00 -12°C° 0.1 mm 1 mps 679 mmHg 87%
    11:00 -11°C° 0 mm 1 mps 678 mmHg 85%
    12:00 -10°C° 0 mm 1 mps 678 mmHg 84%
    13:00 -10°C° 0 mm 2 mps 678 mmHg 83%
    14:00 -9°C° 0 mm 1 mps 677 mmHg 84%
    15:00 -9°C° 0 mm 1 mps 677 mmHg 85%
    16:00 -9°C° 0 mm 1 mps 677 mmHg 87%
    17:00 -12°C° 0 mm 1 mps 677 mmHg 89%
    18:00 -14°C° 0 mm 1 mps 677 mmHg 92%
    19:00 -16°C° 0 mm 0 mps 676 mmHg 95%
    20:00 -16°C° 0 mm 1 mps 676 mmHg 94%
    21:00 -17°C° 0 mm 1 mps 676 mmHg 94%
    22:00 -17°C° 0 mm 1 mps 676 mmHg 94%
    23:00 -17°C° 0 mm 1 mps 676 mmHg 94%

    25 February, Sunday

    Time Temperature Precipitation Wind Pressure Humidity
    00:00 -17°C° 0 mm 1 mps 676 mmHg 93%
    01:00 -17°C° 0 mm 1 mps 676 mmHg 93%
    02:00 -17°C° 0 mm 1 mps 676 mmHg 92%
    03:00 -17°C° 0 mm 1 mps 675 mmHg 92%
    04:00 -18°C° 0 mm 1 mps 675 mmHg 92%
    05:00 -18°C° 0 mm 1 mps 675 mmHg 92%
    06:00 -18°C° 0 mm 1 mps 675 mmHg 91%
    07:00 -19°C° 0 mm 1 mps 675 mmHg 91%
    08:00 -16°C° 0 mm 1 mps 675 mmHg 88%
    09:00 -13°C° 0 mm 0 mps 676 mmHg 85%
    10:00 -11°C° 0 mm 0 mps 676 mmHg 82%
    11:00 -9°C° 0 mm 0 mps 676 mmHg 81%
    12:00 -8°C° 0 mm 0 mps 675 mmHg 80%
    13:00 -6°C° 0 mm 0 mps 675 mmHg 79%
    14:00 -7°C° 0 mm 0 mps 675 mmHg 81%
    15:00 -7°C° 0 mm 1 mps 675 mmHg 84%
    16:00 -7°C° 0 mm 1 mps 674 mmHg 86%
    17:00 -9°C° 0.1 mm 1 mps 675 mmHg 89%
    18:00 -10°C° 0.1 mm 1 mps 675 mmHg 91%
    19:00 -11°C° 0.1 mm 1 mps 675 mmHg 94%
    20:00 -11°C° 0.2 mm 1 mps 676 mmHg 95%
    21:00 -11°C° 0.2 mm 1 mps 676 mmHg 95%
    22:00 -11°C° 0.2 mm 1 mps 676 mmHg 96%
    23:00 -11°C° 0.2 mm 1 mps 676 mmHg 96%

    26 February, Monday

    Time Temperature Precipitation Wind Pressure Humidity
    00:00 -12°C° 0.2 mm 1 mps 677 mmHg 96%
    01:00 -12°C° 0.2 mm 1 mps 677 mmHg 97%
    02:00 -12°C° 0.3 mm 1 mps 677 mmHg 96%
    03:00 -14°C° 0.3 mm 2 mps 678 mmHg 96%
    04:00 -14°C° 0.3 mm 2 mps 678 mmHg 96%
    05:00 -14°C° 0.2 mm 2 mps 679 mmHg 95%
    06:00 -14°C° 0.2 mm 2 mps 679 mmHg 94%
    07:00 -15°C° 0.2 mm 2 mps 680 mmHg 93%
    08:00 -15°C° 0 mm 2 mps 680 mmHg 89%
    09:00 -14°C° 0 mm 2 mps 680 mmHg 85%
    10:00 -14°C° 0 mm 2 mps 681 mmHg 81%
    11:00 -14°C° 0 mm 2 mps 680 mmHg 80%
    12:00 -13°C° 0 mm 2 mps 680 mmHg 79%
    13:00 -13°C° 0 mm 2 mps 680 mmHg 78%
    14:00 -13°C° 0 mm 2 mps 680 mmHg 79%
    15:00 -13°C° 0 mm 2 mps 680 mmHg 81%
    16:00 -14°C° 0 mm 2 mps 680 mmHg 83%
    17:00 -15°C° 0 mm 2 mps 680 mmHg 86%
    18:00 -14°C° 0 mm 1 mps 681 mmHg 89%
    19:00 -16°C° 0 mm 1 mps 681 mmHg 92%
    20:00 -16°C° 0 mm 1 mps 681 mmHg 93%
    21:00 -17°C° 0 mm 1 mps 681 mmHg 93%
    22:00 -18°C° 0 mm 1 mps 681 mmHg 93%
    23:00 -19°C° 0 mm 1 mps 681 mmHg 94%

    27 February, Tuesday

    Time Temperature Precipitation Wind Pressure Humidity
    00:00 -20°C° 0 mm 1 mps 681 mmHg 94%
    01:00 -20°C° 0 mm 1 mps 681 mmHg 95%
    02:00 -21°C° 0 mm 1 mps 681 mmHg 95%
    03:00 -21°C° 0 mm 1 mps 681 mmHg 95%
    04:00 -22°C° 0 mm 1 mps 681 mmHg 96%
    05:00 -22°C° 0 mm 1 mps 681 mmHg 95%
    06:00 -22°C° 0 mm 1 mps 681 mmHg 95%
    07:00 -22°C° 0 mm 1 mps 682 mmHg 95%
    08:00 -21°C° 0 mm 1 mps 682 mmHg 91%
    09:00 -21°C° 0 mm 2 mps 682 mmHg 87%
    10:00 -19°C° 0 mm 2 mps 682 mmHg 83%
    11:00 -19°C° 0 mm 3 mps 682 mmHg 81%
    12:00 -19°C° 0 mm 3 mps 682 mmHg 79%
    13:00 -18°C° 0 mm 3 mps 681 mmHg 78%
    14:00 -19°C° 0 mm 3 mps 681 mmHg 78%
    15:00 -19°C° 0 mm 3 mps 681 mmHg 79%
    16:00 -19°C° 0 mm 3 mps 681 mmHg 80%
    17:00 -21°C° 0 mm 2 mps 681 mmHg 84%
    18:00 -21°C° 0 mm 1 mps 680 mmHg 88%
    19:00 -23°C° 0 mm 1 mps 680 mmHg 92%
    20:00 -24°C° 0 mm 1 mps 680 mmHg 92%
    21:00 -25°C° 0 mm 1 mps 680 mmHg 93%
    22:00 -26°C° 0 mm 0 mps 679 mmHg 94%
    23:00 -26°C° 0 mm 0 mps 679 mmHg 94%
    Show more